Location: Grasslands National Park East Block
(49.0708°N, 106.5295°W)
Time: 05:36:31
(UTC-06:00)

Daily predictions for brighter satellites

Satellite Brightness Start Highest point End
(mag) Time Altitude Azimuth Time Altitude Azimuth Time Altitude Azimuth
Cosmos 2084 Rocket 3.7 00:05:20 35° SSE 00:05:57 38° SE 00:09:31 10° NE
Meteor 2-10 Rocket 3.9 00:00:47 10° N 00:06:22 68° ENE 00:09:42 26° SSE
Cosmos 2227 Rocket 3.6 00:07:50 10° WSW 00:13:06 38° NW 00:18:24 10° NNE
Cosmos 2263 Rocket 3.9 00:11:29 14° ESE 00:13:15 17° E 00:16:42 10° ENE
Lacrosse 4 Rocket 3.1 00:11:10 10° WNW 00:14:41 23° WSW 00:16:24 19° SW
Cosmos 921 Rocket 4.1 00:13:51 25° SE 00:14:52 28° E 00:18:29 10° NE
BREEZE-M DEB (TANK) 4.0 00:12:41 19° SW 00:15:24 54° SE 00:26:40 10° ENE
Aureole 2 Rocket 2.9 00:14:09 10° NW 00:17:13 45° WSW 00:17:59 37° SSW
Cosmos 1674 Rocket 3.9 00:13:12 10° N 00:17:35 56° ENE 00:19:34 30° SE
Cosmos 1356 Rocket 4.2 00:16:41 29° SE 00:17:53 36° E 00:21:41 10° NNE
COS B Rocket 4.4 00:15:57 10° NNW 00:19:34 39° W 00:21:51 21° SW
ATLAS 2AS CENTAUR R/B 3.5 00:16:35 10° WSW 00:24:16 65° NW 00:32:25 10° NE
CZ-4C R/B 3.0 00:23:57 43° S 00:25:02 81° W 00:28:41 10° NNW
SL-16 R/B 3.6 00:20:29 10° NW 00:25:11 27° WSW 00:28:10 18° SSW
MOS 1-B Rocket 4.5 00:22:08 20° SE 00:25:50 48° ENE 00:31:15 10° N
Cosmos 1689 Rocket 2.5 00:25:13 43° SE 00:26:04 62° ENE 00:29:21 10° N
Cosmos 1607 3.9 00:20:04 10° NW 00:26:14 75° SW 00:29:47 27° SSE
CZ-2C R/B 3.9 00:25:08 10° NE 00:29:29 26° E 00:31:36 20° SE
ATLAS 3B R/B 3.9 00:24:52 10° WNW 00:30:32 27° WSW 00:33:49 19° SSW
Nadezhda 3 Rocket 4.1 00:25:11 10° N 00:31:25 71° E 00:35:04 27° SSE
Cosmos 1782 2.8 00:29:24 10° N 00:33:24 72° E 00:34:47 39° SSE
Cosmos 2074 Rocket 4.1 00:29:40 23° SSW 00:33:49 75° W 00:40:10 10° N
Cosmos 2227 4.1 00:31:07 25° SSW 00:34:29 78° ESE 00:40:12 10° NNE
Cosmos 1610 Rocket 4.4 00:31:25 27° S 00:34:57 81° E 00:41:07 10° N
Cosmos 44 3.7 00:36:12 29° S 00:38:46 58° ESE 00:44:08 10° NE
Cosmos 2297 Rocket 3.7 00:34:40 10° WSW 00:39:48 35° NW 00:44:59 10° NNE
Cosmos 1908 Rocket 4.3 00:39:15 29° SE 00:40:44 39° E 00:44:48 10° NNE
Cosmos 1340 Rocket 2.7 00:40:41 39° SSW 00:42:04 85° WNW 00:46:02 10° N
Okean 3 4.4 00:39:19 10° N 00:43:25 40° ENE 00:45:23 25° SE
USA 238 DEB 4.3 00:39:30 10° NW 00:46:05 44° WSW 00:49:31 26° S
USA 238 4.3 00:39:36 10° NW 00:46:12 44° WSW 00:49:38 26° S
Cosmos 1943 3.2 00:40:59 10° NNW 00:46:44 88° ENE 00:49:55 27° SSE
Landsat 5 3.7 00:47:30 35° S 00:49:21 77° WSW 00:53:57 10° NNW
H-2A R/B 2.5 00:49:20 10° NNE 00:53:36 83° WNW 00:55:27 34° SSW
Cosmos 1238 Rocket 2.6 00:51:17 10° N 00:55:16 72° E 00:56:09 46° SSE
Cosmos 1606 2.7 00:51:37 10° N 00:55:29 75° E 00:56:42 42° SSE
Cosmos 2251 Rocket 4.5 00:53:03 10° NW 00:57:51 35° WSW 01:00:03 25° SW
Helios 1A Rocket 3.0 00:57:31 10° NNE 01:01:42 67° ESE 01:03:07 39° S
CENTAUR R/B 3.9 00:56:20 10° NW 01:03:35 49° NE 01:11:27 10° ESE
SeaSat 1 3.5 01:03:05 25° SW 01:04:44 31° WSW 01:09:06 10° NW
Meteor 1-27 Rocket 3.7 00:59:34 10° NNW 01:05:27 86° W 01:08:27 30° S
Cosmos 2154 Rocket 4.0 01:02:28 28° SSW 01:06:05 85° W 01:12:25 10° N
ASTEX 1 3.8 01:02:31 10° N 01:07:18 55° WNW 01:09:48 27° SW
Cosmos 1408 3.2 01:07:49 36° SE 01:08:47 46° E 01:12:25 10° NNE
RESURS DK-1 3.7 01:08:31 23° SE 01:09:15 25° ESE 01:12:40 10° NE
Cosmos 1733 Rocket 3.6 01:07:44 28° SW 01:09:50 51° WNW 01:14:12 10° N
USA 234 3.9 01:04:28 10° E 01:10:51 58° NNE 01:17:15 10° WNW
CZ-4B R/B 2.5 01:11:03 30° WSW 01:11:37 32° W 01:14:42 10° NNW
CZ-4C R/B 3.1 01:07:42 10° NW 01:14:29 54° WSW 01:18:45 26° S
Cosmos 1892 3.9 01:13:46 24° WSW 01:15:21 34° WNW 01:18:51 10° N
Cosmos 1378 Rocket 3.5 01:13:15 10° NNW 01:17:37 72° W 01:19:12 38° S
NOSS 3-2 (C) 4.0 01:12:34 10° NW 01:19:55 69° SW 01:25:27 21° SSE
Sich 1 Rocket 3.8 01:18:38 33° SSW 01:20:34 65° WNW 01:25:08 10° N
Coronas F rocket 2.9 01:21:48 25° W 01:22:06 25° WNW 01:24:26 10° NNW
FALCON 9 R/B 4.5 01:17:27 10° W 01:23:00 15° SW 01:23:35 15° SW
Cosmos 1862 3.2 01:21:51 42° S 01:23:09 84° E 01:27:13 10° N
Cosmos 1867 3.6 01:17:49 10° NW 01:23:16 65° WSW 01:26:00 29° SSE
Meteor 2-13 Rocket 4.5 01:24:11 29° S 01:27:31 78° E 01:33:41 10° NNE
ALOS 2 4.1 01:28:24 20° WSW 01:29:53 24° W 01:33:26 10° NW
CZ-2C R/B 3.2 01:28:46 27° SSE 01:32:03 87° ENE 01:37:36 10° NNW
Cosmos 1825 2.1 01:32:13 44° S 01:33:20 89° W 01:37:10 10° N
PSLV R/B 3.9 01:36:39 35° SSE 01:38:17 82° ENE 01:42:23 10° NNW
Cosmos 1242 Rocket 3.0 01:35:07 10° N 01:38:34 51° ENE 01:39:50 32° SE
NOSS 3-2 (A) 4.3 01:34:19 10° NW 01:41:21 47° WSW 01:45:40 25° S
Cosmos 2341 Rocket 4.4 01:38:55 24° SSW 01:42:48 59° WNW 01:49:07 10° N
Cosmos 1812 4.4 01:41:23 10° N 01:44:48 28° ENE 01:47:22 15° SE
NOSS 3-4 (A) 3.5 01:41:51 24° SSW 01:45:54 79° SE 01:52:34 10° NE
NOSS 3-4 (C) 3.5 01:41:58 25° SSW 01:46:00 78° SE 01:52:40 10° NE
SL-8 Rocket 4.0 01:44:58 27° SSW 01:48:37 84° W 01:55:00 10° N
Cosmos 1782 Rocket 3.6 01:47:51 34° SSW 01:49:40 69° WNW 01:54:05 10° N
Cosmos 1844 Rocket 4.3 01:49:51 15° SE 01:52:53 23° ESE 01:57:15 10° NE
Cosmos 921 Rocket 4.3 01:50:38 18° WSW 01:53:04 32° WNW 01:56:55 10° N
Okean 2 Rocket 3.2 01:53:01 33° SSW 01:54:58 73° W 01:59:30 10° N
Cosmos 2263 Rocket 2.2 01:53:10 27° SSW 01:56:24 88° WNW 02:02:08 10° NNE
Cosmos 1190 Rocket 3.9 01:55:19 10° NNW 02:00:35 87° WSW 02:03:50 24° SSE
Cosmos 2218 Rocket 4.0 01:58:56 26° SSW 02:02:39 80° W 02:09:04 10° N
Abrixas rocket 2.5 02:04:31 45° SSE 02:04:36 45° SSE 02:07:51 10° E
ATLAS 5 CENTAUR R/B 3.4 02:01:36 10° NW 02:07:11 47° NE 02:13:12 10° ESE
Cosmos 1975 Rocket 4.0 02:03:26 10° NNW 02:07:24 34° W 02:08:57 26° SW
CZ-2C R/B 3.1 02:05:01 10° N 02:10:02 49° WNW 02:13:07 22° SW
BREEZE-M DEB (TANK) 3.6 01:55:23 10° WSW 02:10:12 79° SSE 02:14:11 10° ENE
SL-08 R/B 4.5 02:08:20 10° SE 02:12:57 42° ENE 02:17:31 10° N
Cosmos 407 Rocket 3.4 02:08:03 10° NNW 02:13:14 84° WSW 02:16:44 21° SSE
Cosmos 2366 rocket 4.0 02:09:39 26° SSW 02:13:21 77° W 02:19:37 10° N
Cosmos 1371 Rocket 4.1 02:12:14 27° SSW 02:15:16 82° WNW 02:20:40 10° NNE
Cosmos 2056 Rocket 3.5 02:13:11 28° SSW 02:16:03 79° ESE 02:21:18 10° NNE
Cosmos 1536 Rocket 3.5 02:15:08 10° NNW 02:19:31 75° W 02:21:43 29° S
Cosmos 724 4.4 02:16:02 10° NW 02:22:06 67° WSW 02:27:25 14° SSE
Cosmos 2278 Rocket 4.0 02:18:39 10° SE 02:22:38 20° E 02:26:41 10° NE
Okean 1 3.6 02:19:55 10° N 02:23:54 64° ENE 02:26:22 22° SSE
COSMOS 2406 3.3 02:19:07 10° NNW 02:24:50 64° WSW 02:28:48 20° S
Cosmos 676 Rocket 3.9 02:19:44 10° NNW 02:24:58 88° WSW 02:28:57 17° SSE
SL-27 R/B 2.5 02:23:20 10° NNW 02:27:00 70° WSW 02:28:35 31° S
Cosmos 1727 Rocket 4.4 02:26:47 10° NNW 02:32:46 49° W 02:36:29 22° SSW
Iridium 4 Rocket 3.4 02:29:19 10° N 02:34:01 69° W 02:37:03 24° SSW
Cosmos 2082 Rocket 4.2 02:31:17 10° NNW 02:36:18 30° NE 02:41:17 10° ESE
Landsat 4 3.6 02:36:40 26° S 02:38:42 79° WSW 02:42:33 10° NNW
Cosmos 1184 Rocket 4.2 02:40:07 22° WSW 02:41:24 29° WNW 02:44:25 10° N
Meteor 1-25 Rocket 4.3 02:39:21 22° SSW 02:43:10 88° W 02:49:02 10° NNE
RESURS DK-1 3.3 02:44:25 18° WSW 02:47:08 40° NW 02:51:05 10° NNE
Cosmos 1954 Rocket 3.9 02:44:43 10° NNW 02:49:53 71° WSW 02:54:10 15° SSE
NPP 4.0 02:45:09 10° NNE 02:50:31 61° ESE 02:54:34 18° S
PSLV R/B 3.6 02:49:23 10° N 02:53:35 65° WNW 02:56:04 23° SSW
USA 234 3.2 02:47:18 10° SE 02:53:49 69° SW 03:00:22 10° WNW
Cosmos 2151 Rocket 4.4 02:52:07 21° SW 02:54:38 41° WNW 02:58:54 10° N
CENTAUR R/B 3.1 02:47:06 10° NW 02:54:42 63° WSW 03:02:50 10° SSE
Okean 1 Rocket 3.1 02:53:31 22° S 02:56:25 83° E 03:00:55 10° N
Cosmos 1934 Rocket 4.3 02:52:40 15° S 02:57:54 66° E 03:03:58 10° NNE
Okean 1-7 Rocket 3.6 02:54:00 10° NNW 02:58:34 71° W 03:01:50 19° S
ERS-2 2.8 02:56:42 10° NNE 03:00:21 50° ESE 03:02:51 18° S
CZ-2D R/B 4.0 02:59:21 10° NE 03:03:45 24° E 03:08:09 10° SE
Cosmos 1025 Rocket 3.3 03:01:28 10° N 03:05:46 69° E 03:10:01 10° SSE
SL-24 DEB 4.2 03:01:30 10° N 03:06:10 76° W 03:09:31 19° SSW
Cosmos 1023 Rocket 4.4 03:07:27 10° NNW 03:12:32 68° WSW 03:17:33 10° S
Cosmos 1833 Rocket 4.1 03:08:59 10° NNW 03:14:18 41° NE 03:19:35 10° ESE
Timation 2 Rocket 4.0 03:08:33 10° NNW 03:14:48 82° ENE 03:20:48 10° SSE
ARIANE 5 R/B 3.6 03:13:17 10° NNE 03:17:58 38° E 03:22:38 10° SSE
Cosmos 1812 4.0 03:17:20 10° NNW 03:20:37 26° W 03:22:33 18° SW
IRS-1C 4.2 03:15:57 10° NNE 03:21:20 77° ESE 03:26:02 14° S
Cosmos 1452 Rocket 3.6 03:17:47 18° SW 03:21:46 68° WNW 03:27:03 10° NNE
Meteor 2-15 4.4 03:16:18 10° NNW 03:22:28 80° W 03:28:37 10° S
GP-B 3.4 03:18:38 10° N 03:22:59 53° W 03:26:16 17° SSW
Okean 2 4.0 03:22:04 10° N 03:26:08 57° ENE 03:30:11 10° SSE
Cosmos 1536 3.1 03:23:24 14° S 03:26:53 70° E 03:30:56 10° NNE
Meteor 2-21 Rocket 4.5 03:21:43 14° SSW 03:26:59 81° W 03:33:09 10° N
Cosmos 1356 4.4 03:24:04 11° SSE 03:27:14 45° E 03:30:39 10° NNE
CBERS-1 4.1 03:23:38 10° NNE 03:28:47 78° WNW 03:33:10 14° SSW
Cosmos 1420 Rocket 4.1 03:25:30 15° SSW 03:29:56 79° ESE 03:35:14 10° NNE
Cosmos 1140 Rocket 3.8 03:29:26 10° NW 03:34:19 45° WSW 03:39:10 10° S
Meteor 1-19 Rocket 4.4 03:28:47 10° NNW 03:34:33 66° W 03:40:20 10° S
Cosmos 1844 Rocket 2.9 03:31:31 15° SW 03:36:17 66° WNW 03:41:57 10° NNE
IRAS Rocket 4.5 03:32:00 10° N 03:37:28 62° WNW 03:42:20 13° SW
Cosmos 1605 Rocket 4.0 03:31:47 11° S 03:37:50 90° E 03:44:11 10° N
Resurs 1-4 Rocket 3.1 03:32:44 10° NNE 03:37:50 44° E 03:42:52 10° S
Cosmos 2123 Rocket 4.2 03:32:20 10° NNW 03:38:36 61° W 03:44:47 10° S
Cosmos 1821 Rocket 4.3 03:33:34 14° SSW 03:39:03 58° WNW 03:45:22 10° N
EO 1 Del DPAF 3.6 03:36:43 10° SSE 03:40:35 70° ENE 03:44:29 10° N
COSMOS 2487 3.3 03:37:19 10° NW 03:40:38 33° WSW 03:43:23 13° SSW
Cosmos 2263 Rocket 4.1 03:36:50 10° W 03:41:10 22° NW 03:45:30 10° N
Abrixas rocket 2.2 03:38:12 10° W 03:41:35 82° S 03:44:56 10° E
Gbstr 26 Del rocket 2.7 03:38:36 13° WSW 03:42:02 70° SSE 03:45:45 10° ENE
NOSS 2-2 (D) 3.7 03:39:51 15° SW 03:43:23 82° SE 03:48:32 10° NE
Cosmos 1544 Rocket 3.7 03:39:52 10° S 03:44:16 75° E 03:48:40 10° NNE
UNK 4.4 03:38:42 13° SW 03:44:45 31° SSE 03:47:40 10° E
ADEOS 3.6 03:39:41 10° NNE 03:44:57 81° WNW 03:49:59 11° SSW
SL-16 R/B 2.6 03:39:27 10° SSE 03:45:42 89° WSW 03:51:58 10° NNW
Cosmos 1633 2.5 03:44:38 13° SSW 03:47:52 79° W 03:51:33 10° N
SL-08 R/B 4.4 03:47:12 13° SSW 03:50:54 29° W 03:55:08 10° NW
ATLAS 5 CENTAUR R/B 2.6 03:46:21 10° NW 03:52:04 49° WSW 03:58:10 10° SSE
Cosmos 1844 4.0 03:48:59 12° SW 03:54:14 65° WNW 04:00:01 10° NNE
USA 161 2.2 03:51:54 12° SSW 03:54:19 38° W 03:57:10 10° NNW
NOSS 2-2 (C) 3.8 03:53:55 12° SW 03:57:52 79° NW 04:03:04 10° NE
Meteor 1-11 Rocket 4.2 03:53:38 11° SSW 03:59:15 55° WNW 04:05:08 10° N
Cosmos 1892 Rocket 4.0 04:00:19 10° NNW 04:04:28 44° W 04:08:35 10° SSW
Cosmos 1400 Rocket 2.9 04:01:46 10° SSW 04:05:38 63° WNW 04:09:36 10° N
Cosmos 2278 Rocket 2.3 04:00:30 10° SW 04:06:05 74° WNW 04:11:49 10° NNE
Cosmos 1461 3.3 04:03:08 10° SW 04:07:46 72° NW 04:12:20 10° NE
Cosmos 2297 4.0 04:03:03 10° SSW 04:08:39 67° ESE 04:14:20 10° NNE
CZ-2C R/B 4.5 04:05:07 10° SSE 04:09:48 60° ENE 04:14:32 10° N
OPS 6432 4.4 04:07:36 10° SW 04:10:46 67° NW 04:13:56 10° NE
Spot 4 Rocket 4.3 04:05:57 10° N 04:11:00 57° WNW 04:16:02 10° SSW
CZ-2D R/B 4.4 04:07:35 10° NNE 04:11:25 43° E 04:15:19 10° S
Cosmos 2173 Rocket 4.3 04:06:37 10° S 04:12:39 70° E 04:18:50 10° NNE
Cosmos 2082 Rocket 2.3 04:15:09 10° NW 04:20:47 60° WSW 04:26:23 10° S
CZ-4B R/B 4.5 04:16:14 10° NNE 04:21:37 41° E 04:26:55 10° SSE
NOSS 2-2 (E) 4.4 04:18:34 10° WSW 04:22:55 52° NW 04:28:17 10° NE
Meteor 1-5 Rocket 4.3 04:17:16 10° SSW 04:23:07 77° WNW 04:28:48 10° N
Cosmos 1459 Rocket 4.1 04:18:36 10° S 04:24:57 86° E 04:31:15 10° N
Cosmos 1802 Rocket 4.2 04:22:21 10° S 04:28:29 79° E 04:34:39 10° NNE
BREEZE-M DEB (TANK) 3.1 04:24:50 10° WNW 04:35:26 72° SSW 04:38:36 10° ESE
